Wind_Speed
11 9 8 8 7 6 6 6 8 9 9 8 7 5 5 5 4 4 2 1 1 1 1 2 3 3 1 2 4 7 9 11 13 14 17 22 25 27 25 25 24 25 25
13 12 11 10 9 8 8 8 9 10 10 9 8 7 6 5 4 4 3 1 2 2 2 2 2 2 3 4 7 10 11 11 16 21 24 28 27 26 25 25 26 26 28
13 13 12 11 11 10 9 9 10 10 10 10 10 8 7 6 5 4 4 3 2 2 3 3 2 2 3 4 6 8 13 18 21 25 28 28 27 26 26 27 29 29 32
15 14 13 13 12 11 11 10 11 11 11 12 11 10 10 8 7 6 6 5 4 4 3 2 2 4 7 8 10 16 20 22 25 28 28 26 26 27 29 30 30 30 32
16 15 15 14 13 13 12 12 12 11 12 12 12 11 11 10 8 7 6 5 5 4 4 2 4 7 8 13 16 18 22 25 28 28 27 27 27 29 30 30 30 30 30
16 16 14 14 14 15 14 13 13 13 12 11 11 11 12 10 9 9 7 7 5 5 5 6 7 10 15 17 18 20 24 25 28 27 26 27 29 29 29 29 28 27 28
16 16 15 15 15 16 16 15 15 15 13 12 10 11 12 11 11 10 10 8 8 7 7 7 10 14 16 17 21 21 24 25 27 25 25 25 27 27 27 26 25 25 26
17 17 16 16 16 16 16 16 15 15 14 13 11 11 12 13 12 12 11 10 10 10 10 11 14 15 16 18 21 22 23 24 25 23 22 23 24 24 24 23 22 23 23
18 18 17 16 17 16 16 15 15 14 13 12 10 11 13 14 14 14 13 12 11 12 14 15 16 17 18 20 23 23 23 23 23 21 20 20 21 21 21 20 20 20 20
19 19 18 17 17 16 16 14 13 13 12 11 10 12 14 15 16 16 15 14 14 15 16 16 17 19 20 21 21 21 22 22 22 21 19 18 19 20 19 18 18 18 18
21 20 18 18 17 17 16 15 14 14 13 12 12 13 15 17 17 17 17 16 17 18 18 18 18 19 20 21 21 21 21 21 21 19 18 17 18 18 17 17 16 16 16
20 20 19 18 17 16 15 14 13 12 12 12 13 14 16 17 18 17 17 18 20 20 20 19 19 19 19 20 20 21 21 20 19 18 16 15 17 17 16 16 15 14 15
21 20 18 17 17 15 14 13 12 11 11 11 12 14 16 18 18 18 20 22 23 22 22 21 19 19 20 20 20 22 22 19 18 16 15 14 17 16 16 15 14 13 13
21 19 18 17 16 16 14 12 11 10 9 10 11 13 15 17 19 20 23 25 25 24 22 20 20 20 19 19 21 23 22 20 18 16 15 16 16 16 16 14 13 12 11
20 20 19 17 16 16 14 13 10 10 10 10 11 12 14 16 19 22 25 27 27 26 23 21 20 19 20 19 22 23 22 20 19 18 17 17 17 17 16 14 13 12 10
20 21 20 18 17 17 15 14 13 12 13 12 12 13 14 16 20 24 27 28 28 27 24 22 21 19 20 19 21 24 23 21 20 20 19 18 19 19 17 14 12 11 9
21 22 22 20 18 19 17 17 15 15 14 14 14 15 16 17 21 25 28 29 30 28 25 22 20 19 19 19 20 24 24 23 21 20 20 19 19 19 17 15 13 11 9
21 22 23 22 20 20 20 18 17 16 16 15 15 16 17 19 21 26 29 31 31 30 27 23 20 18 18 19 20 23 25 25 22 20 22 21 20 19 17 16 14 12 10
18 20 22 23 22 22 22 21 19 19 18 18 18 17 18 21 23 26 30 32 32 31 28 25 22 20 19 19 20 22 26 27 25 22 22 23 22 21 19 18 16 14 11
14 18 20 23 25 24 24 23 23 23 21 19 18 17 18 21 24 27 30 33 33 32 29 26 24 22 21 20 19 21 25 27 27 25 23 23 23 22 21 20 18 16 13
16 15 17 22 25 25 26 27 26 25 22 21 19 16 18 21 24 28 31 34 35 33 31 28 25 23 22 23 23 21 24 27 27 26 24 24 25 25 24 23 21 19 16
22 21 18 19 23 26 26 28 29 27 25 24 22 20 18 21 24 28 31 34 35 35 32 31 28 26 26 26 26 26 25 27 29 29 28 26 26 28 27 26 24 22 20
27 27 27 24 22 24 28 30 31 29 28 26 25 23 20 20 23 27 31 34 36 35 33 31 30 28 29 29 30 29 30 30 32 32 32 31 30 31 31 29 27 24 22
32 33 32 31 29 26 28 32 33 32 31 29 27 26 22 20 23 27 31 35 36 35 34 32 32 33 34 34 34 34 34 35 36 37 37 37 35 34 34 33 30 27 26
38 39 39 37 35 34 31 34 35 35 35 32 30 29 25 20 23 29 33 36 36 35 34 34 36 35 36 37 37 38 38 39 40 40 40 40 39 39 37 35 33 30 30
37 41 43 42 40 40 38 36 38 38 38 36 34 33 30 24 22 26 30 33 33 34 34 34 35 36 37 38 38 40 41 43 44 44 43 43 42 41 39 38 35 34 34
Wind_Direction
257 258 255 258 250 253 271 291 306 309 312 315 311 312 307 295 294 295 265 193 148 113 159 165 170 180 256 95 118 104 102 107 113 122 120 123 123 116 110 106 103 100 99
252 255 256 257 255 250 255 270 290 297 290 296 301 302 298 285 273 270 284 246 126 144 170 206 197 156 140 122 112 122 120 120 121 121 124 124 122 116 114 108 106 106 101
252 253 253 254 255 256 262 271 282 289 289 289 291 295 287 280 260 249 237 221 196 182 192 230 230 112 126 125 119 116 121 126 126 126 126 128 122 118 113 112 109 107 103
255 254 254 254 254 251 248 253 262 273 282 285 284 283 285 277 256 236 218 204 204 204 221 224 152 138 143 141 131 129 131 130 130 129 129 124 122 120 117 114 112 108 104
253 254 255 255 252 252 249 249 254 263 274 279 279 282 276 265 253 234 225 212 205 206 215 202 173 150 145 136 133 134 133 132 132 133 130 127 125 121 118 115 113 110 106
249 249 248 251 250 250 249 250 253 259 265 267 276 279 270 261 239 228 219 220 215 211 202 172 164 155 146 140 139 137 135 138 137 137 135 133 130 124 122 120 116 113 107
243 243 245 246 248 249 249 248 246 252 251 261 268 270 261 251 234 219 213 213 215 204 188 182 160 151 147 147 142 139 141 143 145 142 138 135 133 130 127 123 122 115 107
239 238 240 244 248 248 249 249 244 247 240 247 254 260 250 241 227 216 214 213 208 193 188 175 161 159 156 153 144 144 146 147 148 146 142 142 139 135 132 129 124 116 112
238 239 240 240 242 241 242 241 241 241 239 241 250 252 238 229 225 219 213 208 202 189 176 169 165 163 161 158 151 150 150 150 152 154 151 149 147 143 138 135 130 123 118
232 236 237 237 237 238 237 236 237 240 242 244 244 241 231 222 217 218 214 203 195 182 174 171 170 167 161 160 154 153 153 154 158 159 163 159 156 153 149 145 139 131 121
231 233 235 234 230 230 229 231 234 239 237 237 236 234 228 221 217 217 212 199 185 180 177 174 173 167 164 164 161 158 156 158 164 166 170 169 165 163 158 153 146 135 123
229 229 228 226 224 222 224 226 229 233 235 233 232 226 225 224 220 214 206 193 184 181 177 176 175 169 168 168 167 165 166 169 174 174 176 176 176 171 169 164 156 139 128
220 219 220 220 220 220 221 221 225 228 231 231 232 228 224 222 220 210 201 191 186 184 182 182 180 179 176 175 175 174 173 176 179 181 188 189 187 182 180 173 161 146 134
220 218 217 219 218 220 221 222 225 230 233 237 234 231 228 223 219 209 198 191 187 187 188 188 186 186 182 183 179 176 176 182 187 191 195 195 193 190 187 178 167 155 142
217 218 220 222 223 223 222 226 231 239 242 244 241 236 227 220 216 206 197 192 189 190 191 194 193 192 188 187 183 180 181 189 195 198 197 196 198 196 191 186 178 167 154
217 218 221 224 228 229 228 230 234 239 247 250 250 242 230 221 214 206 199 194 192 193 195 199 199 199 197 194 191 188 189 194 199 198 195 199 203 201 199 196 191 183 174
219 219 222 227 228 232 234 234 237 241 246 248 250 247 237 225 216 207 202 198 195 195 200 202 202 205 206 201 200 196 196 200 203 202 196 205 210 209 207 207 205 202 197
225 225 225 229 233 234 236 240 244 246 249 251 250 247 242 230 220 209 203 201 197 198 203 202 206 211 212 210 208 204 203 204 206 209 205 208 214 216 217 217 217 216 216
238 238 235 234 236 238 236 239 241 245 246 247 248 244 242 235 226 215 207 204 199 200 203 207 212 215 217 215 213 211 209 209 211 214 217 218 218 221 222 223 225 228 228
239 240 242 240 237 241 238 237 240 245 247 252 255 254 248 239 230 220 213 208 203 201 203 209 213 219 221 220 220 220 215 214 215 220 224 226 226 228 230 229 230 233 235
242 238 237 246 246 243 240 236 239 244 246 250 250 245 244 243 235 227 221 216 209 206 209 214 218 222 227 226 224 224 222 218 218 222 226 228 226 229 234 236 235 236 238
241 247 251 250 250 247 246 241 241 243 246 248 248 242 248 252 244 233 226 220 215 211 212 217 223 226 228 229 229 227 227 224 224 226 227 230 231 232 234 238 239 239 240
242 247 251 253 253 252 248 244 243 244 248 248 247 240 248 249 247 243 235 228 222 216 215 217 224 230 231 231 231 231 229 228 228 230 232 234 236 235 235 237 240 242 244
245 247 249 252 253 253 251 248 246 246 249 252 249 246 248 253 254 250 241 232 228 224 221 225 231 234 234 233 234 234 233 231 231 233 235 236 237 237 234 237 240 243 247
247 250 252 252 252 251 250 247 245 247 249 252 255 250 248 248 256 252 247 240 235 232 228 229 234 239 239 237 237 237 236 235 234 234 236 237 237 238 237 238 240 244 248
248 250 254 256 253 250 247 246 241 241 247 250 253 254 251 246 251 258 257 252 246 244 239 237 240 243 242 240 239 239 238 237 237 236 236 237 238 239 238 238 240 244 249
Height
5896 5896 5897 5898 5899 5898 5898 5898 5897 5898 5898 5898 5898 5897 5897 5896 5894 5894 5896 5897 5896 5895 5897 5898 5898 5898 5898 5898 5899 5898 5899 5900 5901 5902 5901 5904 5906 5905 5907 5907 5907 5908 5909
5895 5895 5896 5896 5898 5899 5898 5897 5897 5897 5897 5898 5898 5896 5897 5896 5896 5895 5895 5895 5896 5896 5896 5897 5897 5897 5898 5899 5899 5899 5899 5900 5901 5902 5904 5906 5907 5907 5909 5910 5910 5912 5912
5893 5893 5894 5895 5896 5896 5896 5896 5896 5896 5896 5896 5896 5896 5896 5895 5895 5895 5895 5895 5895 5895 5895 5896 5896 5896 5897 5899 5899 5899 5900 5901 5903 5904 5906 5909 5908 5910 5911 5914 5914 5915 5914
5890 5891 5892 5893 5894 5895 5895 5896 5895 5895 5895 5894 5894 5895 5894 5894 5894 5895 5895 5895 5896 5895 5895 5895 5897 5897 5898 5899 5900 5901 5902 5903 5905 5906 5908 5910 5911 5913 5913 5915 5917 5918 5917
5888 5888 5889 5890 5891 5892 5893 5893 5893 5893 5893 5893 5892 5892 5892 5892 5892 5894 5894 5894 5894 5894 5895 5896 5897 5898 5899 5899 5900 5902 5904 5906 5906 5909 5910 5911 5913 5915 5916 5917 5920 5920 5919
5885 5886 5887 5887 5888 5889 5890 5890 5891 5891 5892 5891 5891 5890 5890 5890 5891 5892 5892 5893 5892 5893 5895 5896 5897 5898 5899 5900 5902 5903 5905 5908 5908 5912 5912 5914 5915 5917 5918 5920 5922 5923 5921
5882 5883 5884 5885 5885 5886 5887 5888 5888 5889 5889 5889 5889 5888 5888 5888 5889 5890 5891 5892 5892 5892 5893 5896 5897 5897 5899 5901 5903 5904 5907 5909 5911 5914 5914 5916 5918 5919 5921 5922 5923 5924 5923
5878 5880 5881 5882 5883 5883 5884 5885 5885 5886 5886 5887 5887 5886 5886 5887 5887 5888 5889 5890 5891 5892 5894 5895 5897 5898 5900 5903 5904 5906 5909 5911 5913 5914 5915 5918 5919 5921 5922 5923 5924 5925 5925
5875 5876 5877 5879 5880 5881 5881 5882 5882 5883 5883 5883 5883 5883 5884 5885 5885 5886 5887 5888 5890 5892 5893 5895 5897 5899 5901 5904 5905 5907 5910 5911 5913 5915 5916 5919 5920 5922 5923 5925 5926 5927 5927
5871 5872 5874 5875 5877 5877 5878 5879 5879 5880 5880 5880 5880 5881 5881 5882 5883 5884 5885 5886 5888 5890 5892 5894 5896 5898 5901 5903 5905 5908 5910 5912 5914 5916 5917 5920 5922 5923 5924 5926 5927 5928 5928
5868 5869 5871 5872 5873 5874 5875 5876 5876 5877 5877 5877 5877 5878 5878 5880 5881 5883 5884 5885 5886 5888 5891 5893 5896 5898 5900 5903 5905 5908 5910 5912 5914 5916 5918 5921 5922 5924 5925 5927 5928 5928 5928
5865 5866 5867 5868 5869 5870 5871 5872 5873 5873 5874 5874 5875 5875 5876 5877 5878 5880 5881 5883 5885 5888 5890 5892 5895 5897 5900 5903 5905 5908 5910 5912 5914 5916 5918 5921 5923 5924 5926 5927 5928 5928 5928
5860 5862 5864 5865 5867 5868 5869 5869 5870 5871 5871 5872 5872 5873 5874 5874 5876 5878 5879 5882 5884 5887 5889 5892 5894 5896 5899 5901 5904 5907 5909 5912 5914 5916 5918 5920 5923 5924 5926 5927 5927 5928 5928
5857 5860 5861 5863 5864 5865 5866 5867 5868 5868 5869 5869 5870 5870 5871 5871 5874 5875 5878 5880 5883 5886 5888 5891 5892 5895 5897 5900 5902 5905 5908 5911 5913 5915 5917 5920 5922 5923 5925 5926 5927 5928 5928
5853 5856 5859 5860 5862 5863 5864 5865 5866 5867 5867 5867 5867 5868 5869 5869 5871 5873 5875 5878 5881 5884 5887 5889 5891 5893 5895 5898 5901 5904 5907 5910 5912 5914 5916 5919 5921 5923 5924 5925 5926 5927 5927
5850 5853 5855 5857 5859 5860 5861 5862 5863 5865 5865 5865 5865 5865 5866 5867 5869 5870 5873 5876 5879 5882 5885 5887 5890 5891 5894 5897 5900 5902 5905 5908 5910 5913 5915 5917 5919 5921 5923 5924 5925 5925 5925
5847 5849 5851 5853 5856 5857 5858 5859 5861 5862 5862 5863 5863 5863 5864 5865 5867 5868 5871 5874 5877 5880 5882 5885 5887 5890 5892 5895 5897 5900 5903 5906 5909 5911 5913 5916 5918 5919 5921 5922 5923 5924 5924
5843 5846 5848 5850 5852 5854 5856 5857 5858 5859 5859 5860 5860 5861 5861 5862 5864 5866 5868 5871 5874 5877 5879 5882 5885 5888 5890 5892 5894 5897 5900 5903 5906 5908 5911 5913 5915 5917 5918 5920 5921 5921 5922
5842 5844 5846 5847 5849 5850 5852 5853 5854 5855 5856 5856 5856 5857 5858 5859 5860 5863 5865 5868 5870 5873 5876 5879 5882 5884 5887 5889 5891 5894 5897 5900 5902 5905 5908 5910 5912 5913 5915 5916 5917 5918 5919
5839 5840 5842 5843 5845 5846 5848 5849 5850 5851 5852 5854 5854 5854 5855 5856 5857 5859 5861 5864 5866 5869 5872 5875 5878 5880 5883 5885 5888 5890 5893 5895 5898 5901 5903 5905 5907 5909 5911 5912 5913 5914 5915
5836 5837 5837 5839 5840 5842 5844 5845 5846 5847 5849 5850 5850 5850 5850 5851 5853 5855 5857 5859 5862 5865 5868 5870 5873 5876 5879 5881 5884 5886 5888 5891 5893 5896 5898 5900 5902 5904 5906 5907 5908 5909 5910
5833 5833 5834 5834 5835 5837 5839 5840 5842 5843 5844 5845 5846 5846 5847 5849 5850 5852 5854 5857 5859 5861 5863 5866 5868 5871 5873 5876 5878 5880 5883 5886 5888 5891 5893 5895 5896 5898 5900 5901 5903 5904 5905
5828 5829 5829 5830 5831 5832 5833 5834 5835 5837 5839 5840 5841 5842 5843 5844 5845 5847 5849 5851 5853 5855 5858 5860 5863 5865 5867 5870 5872 5875 5877 5880 5882 5884 5886 5888 5890 5891 5893 5894 5896 5897 5899
5822 5822 5823 5825 5826 5827 5827 5828 5830 5832 5833 5835 5836 5837 5838 5839 5841 5842 5844 5846 5849 5850 5852 5855 5857 5858 5860 5863 5865 5867 5870 5872 5875 5877 5879 5881 5883 5884 5885 5887 5889 5891 5892
5815 5815 5816 5818 5819 5820 5820 5822 5823 5825 5827 5829 5831 5832 5833 5834 5836 5838 5839 5841 5843 5844 5846 5847 5849 5851 5853 5855 5857 5859 5861 5864 5866 5869 5871 5873 5874 5876 5879 5880 5882 5883 5884
5807 5808 5808 5809 5811 5812 5813 5814 5816 5818 5820 5822 5823 5825 5827 5829 5830 5832 5834 5836 5837 5838 5839 5840 5841 5843 5844 5846 5848 5850 5852 5854 5856 5859 5861 5863 5866 5868 5871 5873 5874 5875 5876